EW4964 Weather Reports


Display with metric or nautical units.
time (UTC)temp
F
wind
direction
speed
MPH
gust
MPH
rain 1hr
in
rain 24hr
in
rain mn
in
humidity
%
barometer
mb
20260904224508 66 317 5.0 10.0 0.00 0.00 0.00 32 1011.8
20260904221507 67 314 3.0 6.0 0.00 0.00 0.00 31 1012.0
20260904220011 67 314 4.0 8.0 0.00 0.00 0.00 31 1011.8
20260904214508 67 329 4.0 7.0 0.00 0.00 0.00 31 1011.8
20260904213008 67 314 4.0 9.0 0.00 0.00 0.00 31 1011.8
20260904211508 67 314 4.0 7.0 0.00 0.00 0.00 31 1011.9
20260904210008 68 323 4.0 6.0 0.00 0.00 0.00 31 1011.8
20260904203008 68 333 4.0 8.0 0.00 0.00 0.00 31 1011.9
20260904201508 68 1 4.0 8.0 0.00 0.00 0.00 31 1012.0
20260904200008 68 343 3.0 7.0 0.00 0.00 0.00 31 1012.1
20260904194507 68 314 3.0 4.0 0.00 0.00 0.00 31 1012.3
20260904193007 69 306 4.0 8.0 0.00 0.00 0.00 31 1012.1
20260904191507 69 307 3.0 7.0 0.00 0.00 0.00 31 1012.4
20260904190007 69 314 3.0 5.0 0.00 0.00 0.00 31 1012.6
20260904184507 69 292 3.0 6.0 0.00 0.00 0.00 31 1012.6
20260904183007 69 310 3.0 6.0 0.00 0.00 0.00 31 1012.7
20260904181507 70 301 4.0 7.0 0.00 0.00 0.00 31 1012.6
20260904180007 70 290 5.0 10.0 0.00 0.00 0.00 29 1012.4
20260904174507 71 351 4.0 7.0 0.00 0.00 0.00 29 1012.2
20260904173007 71 303 4.0 10.0 0.00 0.00 0.00 25 1011.9
20260904171507 72 273 6.0 13.0 0.00 0.00 0.00 25 1011.8
20260904170007 72 283 6.0 12.0 0.00 0.00 0.00 24 1011.8
20260904164506 73 297 7.0 15.0 0.00 0.00 0.00 24 1012.1
20260904163006 73 251 9.0 17.0 0.00 0.00 0.00 24 1012.0
20260904161506 75 300 9.0 18.0 0.00 0.00 0.00 24 1012.2
20260904160006 76 262 9.0 18.0 0.00 0.00 0.00 23 1012.2
20260904154506 77 284 8.0 20.0 0.00 0.00 0.00 23 1012.5
20260904153006 78 272 5.0 11.0 0.00 0.00 0.00 23 1012.5
20260904151506 76 286 7.0 12.0 0.00 0.00 0.00 24 1012.8
20260904150007 76 258 8.0 15.0 0.00 0.00 0.00 24 1013.0
20260904144507 76 293 7.0 14.0 0.00 0.00 0.00 24 1013.1
20260904143007 76 234 8.0 18.0 0.00 0.00 0.00 24 1013.5
20260904141509 75 264 9.0 16.0 0.00 0.00 0.00 24 1013.8
20260904134507 73 315 7.0 15.0 0.00 0.00 0.00 24 1013.9
20260904133007 73 272 8.0 13.0 0.00 0.00 0.00 25 1014.3
20260904131506 72 204 8.0 16.0 0.00 0.00 0.00 25 1014.2
20260904130007 74 264 8.0 16.0 0.00 0.00 0.00 24 1014.5
20260904123007 72 239 10.0 30.0 0.00 0.00 0.00 26 1014.6
20260904113006 69 291 7.0 13.0 0.00 0.00 0.00 32 1015.6
20260904111506 69 263 7.0 17.0 0.00 0.00 0.00 32 1015.6
20260904110006 70 248 8.0 17.0 0.00 0.00 0.00 31 1015.7
20260904104506 71 262 9.0 20.0 0.00 0.00 0.00 29 1015.9
20260904101506 69 233 7.0 15.0 0.00 0.00 0.00 32 1016.1
20260904094506 68 232 7.0 16.0 0.00 0.00 0.00 33 1016.6
20260904093006 67 272 7.0 12.0 0.00 0.00 0.00 35 1016.4
20260904091506 66 265 8.0 16.0 0.00 0.00 0.00 34 1016.8
20260904090005 66 252 6.0 12.0 0.00 0.00 0.00 35 1016.9
20260904084506 65 272 8.0 16.0 0.00 0.00 0.00 35 1017.0
20260904083006 65 277 7.0 14.0 0.00 0.00 0.00 35 1017.1
20260904081505 64 226 5.0 11.0 0.00 0.00 0.00 41 1017.0
20260904080006 63 238 5.0 10.0 0.00 0.00 0.00 41 1016.7
20260904074506 62 225 5.0 10.0 0.00 0.00 0.00 42 1017.1
20260904073005 62 238 6.0 10.0 0.00 0.00 0.00 44 1017.0
20260904071505 62 223 5.0 12.0 0.00 0.00 0.00 44 1017.0
20260904070005 60 257 7.0 13.0 0.00 0.00 0.00 46 1016.9
20260904064505 60 233 5.0 8.0 0.00 0.00 0.00 48 1017.2
20260904063005 59 250 7.0 12.0 0.00 0.00 0.00 48 1017.2
20260904061505 59 280 6.0 11.0 0.00 0.00 0.00 52 1017.3
20260904060005 57 264 5.0 9.0 0.00 0.00 0.00 53 1017.2
20260904054505 57 257 5.0 9.0 0.00 0.00 0.00 54 1017.2
20260904053006 57 247 5.0 8.0 0.00 0.00 0.00 55 1016.9
20260904051505 56 242 3.0 8.0 0.00 0.00 0.00 54 1016.9
20260904044505 56 255 3.0 5.0 0.00 0.00 0.00 53 1016.8
20260904043005 56 236 3.0 5.0 0.00 0.00 0.00 53 1016.8
20260904041505 56 225 3.0 4.0 0.00 0.00 0.00 53 1016.7
20260904040006 56 253 3.0 6.0 0.00 0.00 0.00 53 1017.0
20260904034505 56 268 3.0 7.0 0.00 0.00 0.00 51 1017.1
20260904033005 57 311 2.0 8.0 0.00 0.00 0.00 51 1017.2
20260904031505 57 262 3.0 7.0 0.00 0.00 0.00 49 1017.0
20260904024505 58 279 3.0 8.0 0.00 0.00 0.00 46 1017.0
20260904023004 58 284 3.0 8.0 0.00 0.00 0.00 46 1016.9
20260904021505 58 240 3.0 9.0 0.00 0.00 0.00 46 1016.9
20260904020004 58 285 3.0 9.0 0.00 0.00 0.00 46 1017.1
20260904014505 58 264 3.0 6.0 0.00 0.00 0.00 46 1017.3
20260904013005 58 248 4.0 9.0 0.00 0.00 0.00 46 1017.0
20260904010005 58 227 3.0 8.0 0.00 0.00 0.00 46 1017.2
20260904004504 58 270 3.0 8.0 0.00 0.00 0.00 45 1017.3
20260904003004 58 270 4.0 8.0 0.00 0.00 0.00 45 1017.2
20260904001504 58 276 4.0 8.0 0.00 0.00 0.00 44 1017.3
20260904000008 58 260 4.0 8.0 0.00 0.00 0.00 44 1017.5
20260903234508 58 259 3.0 7.0 0.00 0.00 0.00 43 1017.8
20260903233007 58 286 3.0 6.0 0.00 0.00 0.00 43 1017.9
20260903231508 58 293 3.0 8.0 0.00 0.00 0.00 44 1018.0